Weather History for Altus AFB, OK

Change the Weather History Date:

Friday, August 24, 2012

  Actual Average Record
Temperature  
Mean Temperature 80 °F -  
Max Temperature 91 °F 93 °F 108 °F (2011)
Min Temperature 69 °F 69 °F 68 °F (1997)
Cooling Degree Days 15    
Growing Degree Days 30 (Base 50)    
Moisture  
Dew Point 68 °F    
Average Humidity 73    
Maximum Humidity 100    
Minimum Humidity 45    
Precipitation  
Precipitation 0.06 in - - ()
Sea Level Pressure  
Sea Level Pressure 29.82 in    
Wind  
Wind Speed 12 mph (SSE)    
Max Wind Speed 22 mph    
Max Gust Speed 30 mph    
Visibility 10 miles    
Events Rain    
Averages and records for this station are not official NWS values.
T = Trace of Precipitation, MM = Missing Value Source: NWS Daily Summary

Daily Weather History Graph

Daily Weather History Graph

Search for Another Location

Airport:

Trip Planner

Search our weather history database for the weather conditions in past years. The results will help you decide how hot, cold, wet, or windy it might be!

Date:

Astronomy

Aug. 24, 2012 Rise Set
Actual Time 7:04 AM CDT 8:13 PM CDT
Civil Twilight 6:38 AM CDT 8:39 PM CDT
Nautical Twilight 6:07 AM CDT 9:10 PM CDT
Astronomical Twilight 5:35 AM CDT 9:42 PM CDT
Moon 2:38 PM CDT (8/24) 12:04 AM CDT (8/24)
Length of Visible Light 14h 00m
Length of Day
13h 08m
First Quarter, 52% of the Moon is Illuminated
Aug 24
First Quarter
Aug 31
Full
Sep 8
Last Quarter
Sep 15
New
Sep 22
First Quarter

Hourly Weather History & Observations

Time (CDT) Temp. Heat Index Dew Point Humidity Pressure Visibility Wind Dir Wind Speed Gust Speed Precip Events Conditions
12:55 AM 80.2 °F 81.4 °F 62.1 °F 54% 29.87 in 10.0 mi SE 13.8 mph - N/A   Overcast
1:55 AM 79.0 °F - 62.2 °F 56% 29.86 in 10.0 mi SE 12.7 mph - N/A   Overcast
2:55 AM 78.3 °F - 62.8 °F 59% 29.86 in 10.0 mi SE 15.0 mph - N/A   Overcast
3:55 AM 77.4 °F - 63.5 °F 62% 29.86 in 10.0 mi SSE 10.4 mph - N/A   Overcast
4:17 AM 75.2 °F - 66.2 °F 73% 29.88 in 10.0 mi South 10.4 mph - N/A   Light Drizzle
4:39 AM 71.6 °F - 68.0 °F 88% 29.87 in 10.0 mi SSE 5.8 mph - N/A Rain Light Rain
4:42 AM 71.6 °F - 69.8 °F 94% 29.87 in 10.0 mi SSE 5.8 mph - N/A Rain Light Rain
4:45 AM 71.6 °F - 69.8 °F 94% 29.87 in 10.0 mi SSE 5.8 mph - N/A Rain Light Rain
4:55 AM 71.6 °F - 69.6 °F 93% 29.87 in 10.0 mi SSE 4.6 mph - 0.03 in Rain Light Rain
5:12 AM 71.6 °F - 69.8 °F 94% 29.86 in 10.0 mi SE 3.5 mph - N/A   Mostly Cloudy
5:55 AM 72.5 °F - 68.2 °F 86% 29.85 in 10.0 mi SSE 3.5 mph - 0.01 in   Mostly Cloudy
6:55 AM 72.5 °F - 66.6 °F 82% 29.85 in 10.0 mi SSE 10.4 mph - N/A   Partly Cloudy
6:58 AM 71.6 °F - 66.2 °F 83% 29.84 in 10.0 mi SE 8.1 mph - N/A   Light Drizzle
7:28 AM 71.6 °F - 68.0 °F 88% 29.85 in 10.0 mi ESE 5.8 mph - N/A   Mostly Cloudy
7:32 AM 71.6 °F - 68.0 °F 88% 29.86 in 10.0 mi ESE 8.1 mph - N/A Rain Light Rain
7:47 AM 69.8 °F - 69.8 °F 100% 29.86 in 10.0 mi SE 10.4 mph - N/A Rain Light Rain
7:55 AM 70.3 °F - 69.8 °F 98% 29.86 in 10.0 mi SE 11.5 mph - 0.01 in   Light Drizzle
7:58 AM 69.8 °F - 69.8 °F 100% 29.86 in 10.0 mi SE 9.2 mph - N/A   Mostly Cloudy
7:59 AM 69.8 °F - 69.8 °F 100% 29.86 in 10.0 mi SSE 9.2 mph - N/A   Mostly Cloudy
8:04 AM 69.8 °F - 69.8 °F 100% 29.86 in 10.0 mi SE 10.4 mph - N/A Rain Light Rain
8:33 AM 71.6 °F - 69.8 °F 94% 29.85 in 10.0 mi ESE 13.8 mph - N/A   Mostly Cloudy
8:37 AM 71.6 °F - 69.8 °F 94% 29.85 in 10.0 mi SE 12.7 mph - N/A   Light Drizzle
8:55 AM 71.6 °F - 70.0 °F 95% 29.85 in 10.0 mi SE 15.0 mph - 0.01 in   Light Drizzle
9:55 AM 73.6 °F - 70.2 °F 89% 29.86 in 10.0 mi SE 12.7 mph - N/A   Scattered Clouds
10:55 AM 78.6 °F - 69.6 °F 74% 29.86 in 10.0 mi South 18.4 mph - N/A   Scattered Clouds
11:55 AM 81.3 °F 84.3 °F 68.4 °F 65% 29.84 in 10.0 mi South 15.0 mph - N/A   Mostly Cloudy
12:55 PM 86.0 °F 89.4 °F 68.0 °F 55% 29.81 in 10.0 mi South 17.3 mph 23.0 mph N/A   Mostly Cloudy
1:55 PM 90.1 °F 93.1 °F 67.1 °F 46% 29.79 in 10.0 mi South 18.4 mph 21.9 mph N/A   Mostly Cloudy
2:55 PM 90.7 °F 94.1 °F 67.3 °F 46% 29.77 in 10.0 mi South 19.6 mph - N/A   Scattered Clouds
3:06 PM 89.6 °F 93.4 °F 68.0 °F 49% 29.77 in 10.0 mi South 16.1 mph 24.2 mph N/A   Light Drizzle
3:14 PM 89.6 °F 93.4 °F 68.0 °F 49% 29.76 in 10.0 mi South 17.3 mph - N/A   Partly Cloudy
3:55 PM 89.6 °F 93.0 °F 67.6 °F 48% 29.75 in 10.0 mi South 17.3 mph 29.9 mph 0.00 in   Mostly Cloudy
4:55 PM 91.6 °F 95.2 °F 67.3 °F 45% 29.74 in 10.0 mi SSE 21.9 mph 27.6 mph N/A   Mostly Cloudy
5:55 PM 88.7 °F 92.6 °F 68.2 °F 51% 29.73 in 10.0 mi SSE 19.6 mph - N/A   Scattered Clouds
6:55 PM 90.3 °F 93.0 °F 66.0 °F 45% 29.72 in 10.0 mi SSE 20.7 mph 29.9 mph N/A   Partly Cloudy
7:55 PM 86.5 °F 89.3 °F 67.3 °F 52% 29.72 in 10.0 mi SE 21.9 mph 27.6 mph N/A   Clear
8:55 PM 83.8 °F 86.7 °F 67.8 °F 58% 29.73 in 10.0 mi SE 16.1 mph - N/A   Scattered Clouds
9:55 PM 82.2 °F 84.9 °F 67.5 °F 61% 29.75 in 10.0 mi SE 17.3 mph - N/A   Clear
10:55 PM 81.1 °F 83.7 °F 67.3 °F 63% 29.75 in 10.0 mi SE 15.0 mph 26.5 mph N/A   Clear
11:55 PM 80.2 °F 82.5 °F 66.4 °F 63% 29.74 in 10.0 mi SE 18.4 mph - N/A   Clear